����������;��������(kVARh)
2018-09-03 00:00;8,2
2018-09-03 00:15;8,45
2018-09-03 00:30;4,95
2018-09-03 00:45;5,5
2018-09-03 01:00;6,9
2018-09-03 01:15;7,4
2018-09-03 01:30;8,85
2018-09-03 01:45;8
2018-09-03 02:00;3,4
2018-09-03 02:15;4
2018-09-03 02:30;4,25
2018-09-03 02:45;4,3
2018-09-03 03:00;5,1
2018-09-03 03:15;3,3
2018-09-03 03:30;5,1
2018-09-03 03:45;12,5
2018-09-03 04:00;15
2018-09-03 04:15;15,6
2018-09-03 04:30;14,65
2018-09-03 04:45;16,4
2018-09-03 05:00;16,55
2018-09-03 05:15;15,95
2018-09-03 05:30;17,35
2018-09-03 05:45;16,25
2018-09-03 06:00;16,55
2018-09-03 06:15;14,15
2018-09-03 06:30;20,7
2018-09-03 06:45;32,05
2018-09-03 07:00;31,9
2018-09-03 07:15;27,4
2018-09-03 07:30;53
2018-09-03 07:45;56,6
2018-09-03 08:00;55,6
2018-09-03 08:15;47,8
2018-09-03 08:30;39,7
2018-09-03 08:45;52,2
2018-09-03 09:00;56,35
2018-09-03 09:15;51,55
2018-09-03 09:30;61,75
2018-09-03 09:45;52,95
2018-09-03 10:00;64,85
2018-09-03 10:15;58,75
2018-09-03 10:30;71,85
2018-09-03 10:45;69,75
2018-09-03 11:00;73
2018-09-03 11:15;74,15
2018-09-03 11:30;78,95
2018-09-03 11:45;77,1
2018-09-03 12:00;74,3
2018-09-03 12:15;76,9
2018-09-03 12:30;73,65
2018-09-03 12:45;81,9
2018-09-03 13:00;77,2
2018-09-03 13:15;82,95
2018-09-03 13:30;76,55
2018-09-03 13:45;85,05
2018-09-03 14:00;88,25
2018-09-03 14:15;72,15
2018-09-03 14:30;81,2
2018-09-03 14:45;71,7
2018-09-03 15:00;74
2018-09-03 15:15;73,15
2018-09-03 15:30;79,05
2018-09-03 15:45;69,65
2018-09-03 16:00;67,75
2018-09-03 16:15;73
2018-09-03 16:30;73,3
2018-09-03 16:45;57,55
2018-09-03 17:00;61,45
2018-09-03 17:15;56,85
2018-09-03 17:30;53,45
2018-09-03 17:45;62,8
2018-09-03 18:00;62,3
2018-09-03 18:15;61,5
2018-09-03 18:30;57,7
2018-09-03 18:45;60,2
2018-09-03 19:00;59
2018-09-03 19:15;41,15
2018-09-03 19:30;38,4
2018-09-03 19:45;38,9
2018-09-03 20:00;35,95
2018-09-03 20:15;25,65
2018-09-03 20:30;27,3
2018-09-03 20:45;28
2018-09-03 21:00;23,55
2018-09-03 21:15;19
2018-09-03 21:30;19,8
2018-09-03 21:45;18,3
2018-09-03 22:00;14,3
2018-09-03 22:15;12,7
2018-09-03 22:30;13
2018-09-03 22:45;14,15
2018-09-03 23:00;12,5
2018-09-03 23:15;12,8
2018-09-03 23:30;11,6
2018-09-03 23:45;13,5
2018-09-04 00:00;12,9
2018-09-04 00:15;11,3
2018-09-04 00:30;12,85
2018-09-04 00:45;13,55
2018-09-04 01:00;15,6
2018-09-04 01:15;15,25
2018-09-04 01:30;14,3
2018-09-04 01:45;7,3
2018-09-04 02:00;0,4
2018-09-04 02:15;0,65
2018-09-04 02:30;0,45
2018-09-04 02:45;0,9
2018-09-04 03:00;0,95
2018-09-04 03:15;1,5
2018-09-04 03:30;2,8
2018-09-04 03:45;2,75
2018-09-04 04:00;3,5
2018-09-04 04:15;2,75
2018-09-04 04:30;3,55
2018-09-04 04:45;10,75
2018-09-04 05:00;15,15
2018-09-04 05:15;14,4
2018-09-04 05:30;15
2018-09-04 05:45;14,9
2018-09-04 06:00;14
2018-09-04 06:15;11,75
2018-09-04 06:30;9,7
2018-09-04 06:45;29,8
2018-09-04 07:00;31,15
2018-09-04 07:15;35,1
2018-09-04 07:30;59,4
2018-09-04 07:45;52,85
2018-09-04 08:00;60,05
2018-09-04 08:15;44,55
2018-09-04 08:30;50,1
2018-09-04 08:45;46,15
2018-09-04 09:00;50,7
2018-09-04 09:15;57,35
2018-09-04 09:30;50,3
2018-09-04 09:45;57,85
2018-09-04 10:00;58,45
2018-09-04 10:15;74,7
2018-09-04 10:30;66,2
2018-09-04 10:45;73,05
2018-09-04 11:00;83,35
2018-09-04 11:15;74,15
2018-09-04 11:30;77,3
2018-09-04 11:45;75,45
2018-09-04 12:00;77,8
2018-09-04 12:15;73,65
2018-09-04 12:30;81,9
2018-09-04 12:45;89,45
2018-09-04 13:00;71,4
2018-09-04 13:15;75,15
2018-09-04 13:30;62,15
2018-09-04 13:45;63,85
2018-09-04 14:00;62,85
2018-09-04 14:15;61,7
2018-09-04 14:30;64,4
2018-09-04 14:45;64,5
2018-09-04 15:00;63,6
2018-09-04 15:15;63,35
2018-09-04 15:30;58,5
2018-09-04 15:45;60,45
2018-09-04 16:00;57,35
2018-09-04 16:15;56,35
2018-09-04 16:30;53,8
2018-09-04 16:45;50,45
2018-09-04 17:00;46,3
2018-09-04 17:15;49,8
2018-09-04 17:30;47,35
2018-09-04 17:45;46,65
2018-09-04 18:00;40,5
2018-09-04 18:15;28,95
2018-09-04 18:30;28,1
2018-09-04 18:45;29,55
2018-09-04 19:00;26,15
2018-09-04 19:15;29,95
2018-09-04 19:30;27,6
2018-09-04 19:45;29,85
2018-09-04 20:00;26,15
2018-09-04 20:15;23,3
2018-09-04 20:30;22,3
2018-09-04 20:45;22,5
2018-09-04 21:00;21,5
2018-09-04 21:15;24,8
2018-09-04 21:30;24,1
2018-09-04 21:45;22,5
2018-09-04 22:00;20,95
2018-09-04 22:15;18,45
2018-09-04 22:30;17,4
2018-09-04 22:45;15,45
2018-09-04 23:00;14,7
2018-09-04 23:15;12,4
2018-09-04 23:30;12,15
2018-09-04 23:45;9,35
2018-09-05 00:00;9,1
2018-09-05 00:15;5,5
2018-09-05 00:30;1,95
2018-09-05 00:45;2,45
2018-09-05 01:00;3,35
2018-09-05 01:15;4,4
2018-09-05 01:30;6,4
2018-09-05 01:45;16,9
2018-09-05 02:00;10,5
2018-09-05 02:15;4,65
2018-09-05 02:30;4,45
2018-09-05 02:45;5,3
2018-09-05 03:00;4,5
2018-09-05 03:15;5,1
2018-09-05 03:30;5,45
2018-09-05 03:45;5,7
2018-09-05 04:00;6,05
2018-09-05 04:15;4,5
2018-09-05 04:30;5,25
2018-09-05 04:45;5,65
2018-09-05 05:00;5,4
2018-09-05 05:15;5,6
2018-09-05 05:30;6,8
2018-09-05 05:45;6,8
2018-09-05 06:00;6,15
2018-09-05 06:15;5,75
2018-09-05 06:30;5,2
2018-09-05 06:45;9,75
2018-09-05 07:00;19,05
2018-09-05 07:15;31,6
2018-09-05 07:30;44,4
2018-09-05 07:45;44,65
2018-09-05 08:00;42,5
2018-09-05 08:15;47,45
2018-09-05 08:30;44,65
2018-09-05 08:45;46,2
2018-09-05 09:00;49,25
2018-09-05 09:15;49,85
2018-09-05 09:30;51,85
2018-09-05 09:45;58,8
2018-09-05 10:00;58,3
2018-09-05 10:15;55,35
2018-09-05 10:30;58,95
2018-09-05 10:45;59,9
2018-09-05 11:00;67,55
2018-09-05 11:15;98,75
2018-09-05 11:30;99
2018-09-05 11:45;98,5
2018-09-05 12:00;88,1
2018-09-05 12:15;89,3
2018-09-05 12:30;85,4
2018-09-05 12:45;79,9
2018-09-05 13:00;86,2
2018-09-05 13:15;79,35
2018-09-05 13:30;93,25
2018-09-05 13:45;92,5
2018-09-05 14:00;79
2018-09-05 14:15;95,25
2018-09-05 14:30;85
2018-09-05 14:45;78,35
2018-09-05 15:00;88,3
2018-09-05 15:15;65,35
2018-09-05 15:30;66,05
2018-09-05 15:45;73,4
2018-09-05 16:00;55,5
2018-09-05 16:15;65,05
2018-09-05 16:30;68,55
2018-09-05 16:45;53,3
2018-09-05 17:00;64
2018-09-05 17:15;62,35
2018-09-05 17:30;46,05
2018-09-05 17:45;58,1
2018-09-05 18:00;55
2018-09-05 18:15;60,55
2018-09-05 18:30;39,25
2018-09-05 18:45;48,3
2018-09-05 19:00;38,7
2018-09-05 19:15;33,15
2018-09-05 19:30;31,25
2018-09-05 19:45;30,15
2018-09-05 20:00;29,3
2018-09-05 20:15;25,35
2018-09-05 20:30;24,4
2018-09-05 20:45;26
2018-09-05 21:00;19,7
2018-09-05 21:15;16,4
2018-09-05 21:30;18,1
2018-09-05 21:45;15,9
2018-09-05 22:00;13,75
2018-09-05 22:15;8,75
2018-09-05 22:30;6,4
2018-09-05 22:45;6,5
2018-09-05 23:00;8,5
2018-09-05 23:15;8,9
2018-09-05 23:30;7,8
2018-09-05 23:45;7,7
2018-09-06 00:00;7,1
2018-09-06 00:15;1,65
2018-09-06 00:30;0,3
2018-09-06 00:45;0,65
2018-09-06 01:00;1,5
2018-09-06 01:15;2
2018-09-06 01:30;2,55
2018-09-06 01:45;0,7
2018-09-06 02:00;7,7
2018-09-06 02:15;10,15
2018-09-06 02:30;10,9
2018-09-06 02:45;11,2
2018-09-06 03:00;11,6
2018-09-06 03:15;11,3
2018-09-06 03:30;12,3
2018-09-06 03:45;13,55
2018-09-06 04:00;13,65
2018-09-06 04:15;12,9
2018-09-06 04:30;12,7
2018-09-06 04:45;13,75
2018-09-06 05:00;13,05
2018-09-06 05:15;13,35
2018-09-06 05:30;13,75
2018-09-06 05:45;14
2018-09-06 06:00;14,5
2018-09-06 06:15;13,25
2018-09-06 06:30;11,55
2018-09-06 06:45;12,55
2018-09-06 07:00;14,05
2018-09-06 07:15;19,7
2018-09-06 07:30;54,65
2018-09-06 07:45;60,45
2018-09-06 08:00;69,25
2018-09-06 08:15;48,45
2018-09-06 08:30;57,5
2018-09-06 08:45;68,5
2018-09-06 09:00;57,75
2018-09-06 09:15;60,8
2018-09-06 09:30;60,5
2018-09-06 09:45;60,05
2018-09-06 10:00;69,6
2018-09-06 10:15;77,15
2018-09-06 10:30;67,1
2018-09-06 10:45;78,95
2018-09-06 11:00;85,1
2018-09-06 11:15;71,9
2018-09-06 11:30;81,3
2018-09-06 11:45;67,35
2018-09-06 12:00;76,4
2018-09-06 12:15;77,5
2018-09-06 12:30;88,2
2018-09-06 12:45;85,65
2018-09-06 13:00;87,8
2018-09-06 13:15;88,25
2018-09-06 13:30;84,25
2018-09-06 13:45;78,55
2018-09-06 14:00;71,85
2018-09-06 14:15;67,55
2018-09-06 14:30;74,7
2018-09-06 14:45;74,45
2018-09-06 15:00;70,4
2018-09-06 15:15;71,4
2018-09-06 15:30;75,3
2018-09-06 15:45;70,1
2018-09-06 16:00;66,1
2018-09-06 16:15;73,95
2018-09-06 16:30;73,15
2018-09-06 16:45;74,85
2018-09-06 17:00;65,5
2018-09-06 17:15;58,35
2018-09-06 17:30;54,4
2018-09-06 17:45;55
2018-09-06 18:00;55,65
2018-09-06 18:15;46,45
2018-09-06 18:30;47,6
2018-09-06 18:45;47,85
2018-09-06 19:00;42,1
2018-09-06 19:15;29,25
2018-09-06 19:30;44,1
2018-09-06 19:45;42,7
2018-09-06 20:00;33,85
2018-09-06 20:15;28,6
2018-09-06 20:30;22,7
2018-09-06 20:45;30,45
2018-09-06 21:00;27,4
2018-09-06 21:15;23,7
2018-09-06 21:30;26,1
2018-09-06 21:45;15,35
2018-09-06 22:00;22,7
2018-09-06 22:15;16,3
2018-09-06 22:30;12,85
2018-09-06 22:45;19,15
2018-09-06 23:00;16,1
2018-09-06 23:15;30,85
2018-09-06 23:30;20,6
2018-09-06 23:45;8,65
2018-09-07 00:00;4,2
2018-09-07 00:15;12,2
2018-09-07 00:30;14,45
2018-09-07 00:45;0,6
2018-09-07 01:00;5,25
2018-09-07 01:15;3,3
2018-09-07 01:30;1,6
2018-09-07 01:45;5,15
2018-09-07 02:00;0,4
2018-09-07 02:15;4,5
2018-09-07 02:30;7,8
2018-09-07 02:45;8,7
2018-09-07 03:00;16,1
2018-09-07 03:15;9,5
2018-09-07 03:30;15,65
2018-09-07 03:45;14,9
2018-09-07 04:00;26,25
2018-09-07 04:15;15,05
2018-09-07 04:30;18,05
2018-09-07 04:45;27,75
2018-09-07 05:00;45,55
2018-09-07 05:15;34,95
2018-09-07 05:30;28,85
2018-09-07 05:45;22,4
2018-09-07 06:00;25,95
2018-09-07 06:15;16,45
2018-09-07 06:30;23,75
2018-09-07 06:45;22,8
2018-09-07 07:00;26
2018-09-07 07:15;30,9
2018-09-07 07:30;22,5
2018-09-07 07:45;28,35
2018-09-07 08:00;19,3
2018-09-07 08:15;33,85
2018-09-07 08:30;39,4
2018-09-07 08:45;53,65
2018-09-07 09:00;46,9
2018-09-07 09:15;50,1
2018-09-07 09:30;42,75
2018-09-07 09:45;59,25
2018-09-07 10:00;62,75
2018-09-07 10:15;54,65
2018-09-07 10:30;61,65
2018-09-07 10:45;61,7
2018-09-07 11:00;72,75
2018-09-07 11:15;73
2018-09-07 11:30;61,3
2018-09-07 11:45;68,1
2018-09-07 12:00;70,6
2018-09-07 12:15;67,65
2018-09-07 12:30;69,5
2018-09-07 12:45;72,8
2018-09-07 13:00;71,95
2018-09-07 13:15;78,65
2018-09-07 13:30;78,05
2018-09-07 13:45;80,65
2018-09-07 14:00;81,6
2018-09-07 14:15;70,8
2018-09-07 14:30;74,45
2018-09-07 14:45;74,3
2018-09-07 15:00;69,8
2018-09-07 15:15;68,05
2018-09-07 15:30;69,65
2018-09-07 15:45;65,35
2018-09-07 16:00;64,65
2018-09-07 16:15;68,75
2018-09-07 16:30;63,6
2018-09-07 16:45;69,9
2018-09-07 17:00;66,7
2018-09-07 17:15;54,25
2018-09-07 17:30;52,6
2018-09-07 17:45;44,8
2018-09-07 18:00;45,15
2018-09-07 18:15;44,55
2018-09-07 18:30;43,45
2018-09-07 18:45;39,1
2018-09-07 19:00;42,25
2018-09-07 19:15;33,7
2018-09-07 19:30;25,65
2018-09-07 19:45;23,9
2018-09-07 20:00;19,75
2018-09-07 20:15;19,3
2018-09-07 20:30;17,85
2018-09-07 20:45;16,35
2018-09-07 21:00;17,9
2018-09-07 21:15;17,15
2018-09-07 21:30;18,05
2018-09-07 21:45;16,7
2018-09-07 22:00;14,6
2018-09-07 22:15;14,3
2018-09-07 22:30;14
2018-09-07 22:45;7,35
2018-09-07 23:00;4,5
2018-09-07 23:15;3,6
2018-09-07 23:30;3,05
2018-09-07 23:45;3,95
2018-09-08 00:00;4,25
2018-09-08 00:15;4,8
2018-09-08 00:30;5,65
2018-09-08 00:45;6,1
2018-09-08 01:00;2,05
2018-09-08 01:15;0,9
2018-09-08 01:30;0,7
2018-09-08 01:45;1,4
2018-09-08 02:00;2,15
2018-09-08 02:15;2,65
2018-09-08 02:30;2
2018-09-08 02:45;3,2
2018-09-08 03:00;2,7
2018-09-08 03:15;3,6
2018-09-08 03:30;5,15
2018-09-08 03:45;4,4
2018-09-08 04:00;4,85
2018-09-08 04:15;5,3
2018-09-08 04:30;5,6
2018-09-08 04:45;5,4
2018-09-08 05:00;5,1
2018-09-08 05:15;5,6
2018-09-08 05:30;5,95
2018-09-08 05:45;6,3
2018-09-08 06:00;5,9
2018-09-08 06:15;3,2
2018-09-08 06:30;3,4
2018-09-08 06:45;3,05
2018-09-08 07:00;3,05
2018-09-08 07:15;2,85
2018-09-08 07:30;1,2
2018-09-08 07:45;0,5
2018-09-08 08:00;0,05
2018-09-08 08:15;0
2018-09-08 08:30;0,75
2018-09-08 08:45;0,4
2018-09-08 09:00;0,1
2018-09-08 09:15;0,1
2018-09-08 09:30;0,45
2018-09-08 09:45;1,6
2018-09-08 10:00;2,9
2018-09-08 10:15;5,6
2018-09-08 10:30;5,05
2018-09-08 10:45;4,8
2018-09-08 11:00;4,2
2018-09-08 11:15;4,65
2018-09-08 11:30;3,75
2018-09-08 11:45;3,8
2018-09-08 12:00;3,1
2018-09-08 12:15;2,75
2018-09-08 12:30;2,7
2018-09-08 12:45;2,45
2018-09-08 13:00;1,8
2018-09-08 13:15;2,5
2018-09-08 13:30;0,7
2018-09-08 13:45;2,4
2018-09-08 14:00;2,3
2018-09-08 14:15;2,6
2018-09-08 14:30;2,8
2018-09-08 14:45;5,15
2018-09-08 15:00;4,35
2018-09-08 15:15;4,75
2018-09-08 15:30;4,45
2018-09-08 15:45;6,7
2018-09-08 16:00;6,8
2018-09-08 16:15;7,1
2018-09-08 16:30;6,6
2018-09-08 16:45;9,3
2018-09-08 17:00;9,35
2018-09-08 17:15;8,2
2018-09-08 17:30;9,45
2018-09-08 17:45;10,25
2018-09-08 18:00;8,9
2018-09-08 18:15;8,25
2018-09-08 18:30;7,4
2018-09-08 18:45;6,8
2018-09-08 19:00;7,2
2018-09-08 19:15;8
2018-09-08 19:30;7,6
2018-09-08 19:45;8,2
2018-09-08 20:00;7,25
2018-09-08 20:15;7,2
2018-09-08 20:30;8,25
2018-09-08 20:45;8,55
2018-09-08 21:00;7,2
2018-09-08 21:15;8,35
2018-09-08 21:30;7,85
2018-09-08 21:45;7,1
2018-09-08 22:00;6,9
2018-09-08 22:15;6,15
2018-09-08 22:30;3,6
2018-09-08 22:45;2,25
2018-09-08 23:00;2,05
2018-09-08 23:15;2,2
2018-09-08 23:30;0,95
2018-09-08 23:45;0,15
2018-09-09 00:00;0
2018-09-09 00:15;0
2018-09-09 00:30;0,2
2018-09-09 00:45;0
2018-09-09 01:00;0,1
2018-09-09 01:15;0,5
2018-09-09 01:30;0
2018-09-09 01:45;0
2018-09-09 02:00;0
2018-09-09 02:15;0
2018-09-09 02:30;0,1
2018-09-09 02:45;0
2018-09-09 03:00;0
2018-09-09 03:15;0,4
2018-09-09 03:30;0,2
2018-09-09 03:45;0
2018-09-09 04:00;0,45
2018-09-09 04:15;0,15
2018-09-09 04:30;1
2018-09-09 04:45;0,95
2018-09-09 05:00;0,35
2018-09-09 05:15;0,35
2018-09-09 05:30;1,05
2018-09-09 05:45;0,8
2018-09-09 06:00;0,8
2018-09-09 06:15;0,1
2018-09-09 06:30;0,4
2018-09-09 06:45;0,2
2018-09-09 07:00;0,5
2018-09-09 07:15;0,1
2018-09-09 07:30;0
2018-09-09 07:45;0
2018-09-09 08:00;3,2
2018-09-09 08:15;7,45
2018-09-09 08:30;12,15
2018-09-09 08:45;10,2
2018-09-09 09:00;9,5
2018-09-09 09:15;11,25
2018-09-09 09:30;18,2
2018-09-09 09:45;18,75
2018-09-09 10:00;19,75
2018-09-09 10:15;18,35
2018-09-09 10:30;17,85
2018-09-09 10:45;16,55
2018-09-09 11:00;17,7
2018-09-09 11:15;16,35
2018-09-09 11:30;16,45
2018-09-09 11:45;16,5
2018-09-09 12:00;17,95
2018-09-09 12:15;17,05
2018-09-09 12:30;16,25
2018-09-09 12:45;13,15
2018-09-09 13:00;9,25
2018-09-09 13:15;8
2018-09-09 13:30;8,85
2018-09-09 13:45;9,7
2018-09-09 14:00;11,15
2018-09-09 14:15;9,85
2018-09-09 14:30;9,95
2018-09-09 14:45;10,15
2018-09-09 15:00;10,5
2018-09-09 15:15;11,9
2018-09-09 15:30;12,4
2018-09-09 15:45;11,5
2018-09-09 16:00;12,55
2018-09-09 16:15;12,65
2018-09-09 16:30;14,7
2018-09-09 16:45;13,4
2018-09-09 17:00;12,5
2018-09-09 17:15;11,65
2018-09-09 17:30;10,55
2018-09-09 17:45;11
2018-09-09 18:00;8,4
2018-09-09 18:15;7,45
2018-09-09 18:30;6,85
2018-09-09 18:45;6,2
2018-09-09 19:00;8,2
2018-09-09 19:15;8,3
2018-09-09 19:30;7,85
2018-09-09 19:45;9,65
2018-09-09 20:00;10,7
2018-09-09 20:15;9,85
2018-09-09 20:30;9,75
2018-09-09 20:45;10,65
2018-09-09 21:00;11,25
2018-09-09 21:15;11,4
2018-09-09 21:30;11,15
2018-09-09 21:45;10,95
2018-09-09 22:00;9,05
2018-09-09 22:15;8,6
2018-09-09 22:30;7,35
2018-09-09 22:45;9,45
2018-09-09 23:00;7,4
2018-09-09 23:15;8,05
2018-09-09 23:30;3,75
2018-09-09 23:45;2,85

